Flag for Afghanistan Weather past 2 weeks in Jalalabad, Afghanistan

75 °F

Thundershowers. Partly cloudy.

Feels Like: 77 °F
Forecast: 62 / 94 °F
Wind: 16 mph from Southwest

Location: Peshawar Airport

Current Time: Oct 6, 2015 at 11:36:50 PM

Latest Report: Oct 6, 2015 at 10:30 PM

Visibility: 2 mi

Pressure: 29.89 "Hg (27.99 "Hg at 572m altitude)

Humidity: 61%

Dew point: 61 °F

Location of JalalabadLocation

Historic Weather in Jalalabad — Graph


Jalalabad temperature yesterday

Maximum temperature yesterday: 93 °F (at 1:30 PM)
Minimum temperature yesterday: 68 °F (at 5:30 AM)
Average temperature yesterday: 80 °F

Past Weeks' High & Low Weather Summary

High95 °F (Oct 1, 2:30 PM)88% (Sep 23, 5:30 AM)30.07 "Hg (Sep 23, 5:30 AM)
Low64 °F (Sep 29, 5:30 AM)30% (Oct 1, 2:30 PM)29.56 "Hg (Sep 22, 6:30 PM)
Average80 °F56%29.83 "Hg
* Reported Sep 21 10:30 PM — Oct 6 10:30 PM, Jalalabad, Weather by CustomWeather, © 2015

Note: Actual official high and low records may vary slightly from our data, if they occured in-between our weather recording intervals... More about our weather records


Jalalabad weather history for previous 24 hours

Time TempWeatherWind HumidityBarometerVisibility
10:30 PM
Tue, Oct 6
75 °FThundershowers. Partly cloudy.16 mph61%29.89 "Hg2 mi
9:30 PM75 °FThundershowers. Partly cloudy.23 mph57%29.89 "Hg2 mi
8:30 PM75 °FThunderstorms. Partly cloudy.30 mph57%29.92 "Hg2 mi
7:30 PM75 °FThunderstorms. Partly cloudy.30 mph57%29.95 "Hg2 mi
6:30 PM79 °FThunderstorms. Partly cloudy.23 mph51%29.95 "Hg2 mi
5:30 PM86 °FThunderstorms. Partly cloudy.41 mph46%29.89 "Hg1 mi
4:30 PM86 °FThunderstorms. Broken clouds.16 mph46%29.80 "Hg2 mi
3:30 PM90 °FScattered clouds.14 mph38%29.80 "Hg2 mi
2:30 PM91 °FHaze.12 mph41%29.83 "Hg2 mi
1:30 PM91 °FHaze.12 mph41%29.83 "Hg2 mi
12:30 PM91 °FSunny.12 mph44%29.89 "Hg2 mi
11:30 AM91 °FSunny.5 mph44%29.92 "Hg2 mi
10:30 AM88 °FSunny.7 mph46%29.92 "Hg2 mi
9:30 AM84 °FSunny.7 mph51%29.92 "Hg2 mi
8:30 AM81 °FHaze.5 mph54%29.92 "Hg2 mi
7:30 AM75 °FHaze.5 mph61%29.92 "Hg2 mi
6:30 AM73 °FHaze.7 mph69%29.89 "Hg2 mi
5:30 AM72 °FHaze.5 mph69%29.86 "Hg2 mi
4:29 AM73 °FPassing clouds.5 mph61%29.86 "Hg2 mi
2:30 AM73 °FPassing clouds.7 mph65%29.86 "Hg2 mi
1:30 AM75 °FPassing clouds.7 mph61%29.86 "Hg2 mi
12:30 AM75 °FPassing clouds.5 mph61%29.86 "Hg2 mi
11:30 PM
Mon, Oct 5
77 °FPassing clouds.7 mph57%29.86 "Hg2 mi
Weather by CustomWeather, © 2015

See weather overviewHow to use our weather pages